Flag for U.S.A. Weather past 2 weeks in Victorville, California, U.S.A.

Now
75 °F

Sunny.


Feels Like: 76 °F
Forecast: 57 / 88 °F
Wind: No wind

Location: George Air Force Base / Victorvi

Current Time: Sep 2, 2015 at 10:27:22 AM

Latest Report: Sep 2, 2015 at 9:55 AM


Visibility: 10 mi

Pressure: 30.00 "Hg (27.27 "Hg at 830m altitude)

Humidity: 24%

Dew point: 36 °F

Location of VictorvilleLocation

Historic Weather in Victorville — Graph

°F

Victorville temperature yesterday

Maximum temperature yesterday: 93 °F (at 2:15 PM)
Minimum temperature yesterday: 61 °F (at 6:35 AM)
Average temperature yesterday: 76 °F

Past Weeks' High & Low Weather Summary

 TemperatureHumidityPressure
High102 °F (Aug 18, 2:55 PM)68% (Sep 2, 2:15 AM)30.14 "Hg (Sep 2, 2:15 AM)
Low61 °F (Sep 1, 6:35 AM)8% (Aug 20, 2:15 PM)29.83 "Hg (Aug 20, 3:55 PM)
Average82 °F28%29.97 "Hg
* Reported Aug 18 9:15 AM — Sep 2 9:15 AM, Victorville, Weather by CustomWeather, © 2015

Note: Actual official high and low records may vary slightly from our data, if they occured in-between our weather recording intervals... More about our weather records

Advertising

Victorville weather history for previous 24 hours

 ConditionsComfort  
Time TempWeatherWind HumidityBarometerVisibility
9:15 AM
Wed, Sep 2
72 °FSunny.No wind31%30.00 "Hg10 mi
8:55 AM72 °FSunny.No wind36%30.00 "Hg10 mi
8:35 AM72 °FSunny.No wind36%30.01 "Hg10 mi
8:15 AM66 °FSunny.No wind49%30.01 "Hg10 mi
7:55 AM64 °FSunny.No wind52%30.01 "Hg10 mi
7:35 AM63 °FSunny.No wind56%30.01 "Hg10 mi
7:15 AM64 °FClear.No wind43%30.00 "Hg10 mi
6:55 AM64 °FClear.No wind43%29.99 "Hg10 mi
6:35 AM64 °FClear.No wind49%29.99 "Hg10 mi
6:15 AM63 °FClear.No wind56%29.99 "Hg10 mi
5:55 AM63 °FClear.No wind64%29.99 "Hg10 mi
5:15 AM64 °FClear.9 mph60%29.98 "Hg10 mi
4:55 AM64 °FClear.No wind56%29.98 "Hg10 mi
4:35 AM63 °FClear.No wind59%29.98 "Hg10 mi
4:15 AM63 °FClear.No wind59%29.98 "Hg10 mi
3:55 AM63 °FClear.No wind68%29.98 "Hg10 mi
3:35 AM64 °FClear.13 mph68%29.98 "Hg10 mi
3:15 AM64 °FClear.10 mph64%29.98 "Hg10 mi
2:55 AM64 °FClear.5 mph64%29.99 "Hg10 mi
2:35 AM63 °FClear.No wind68%29.99 "Hg10 mi
2:15 AM64 °FClear.No wind68%29.99 "Hg10 mi
1:55 AM64 °FClear.No wind64%29.99 "Hg10 mi
1:35 AM64 °FClear.No wind64%29.99 "Hg10 mi
1:15 AM64 °FClear.No wind64%30.00 "Hg10 mi
12:55 AM66 °FClear.No wind60%29.99 "Hg10 mi
12:35 AM68 °FClear.10 mph56%29.99 "Hg10 mi
12:15 AM68 °FClear.12 mph60%29.99 "Hg10 mi
11:55 PM
Tue, Sep 1
68 °FClear.No wind60%29.99 "Hg10 mi
11:35 PM70 °FClear.6 mph53%29.98 "Hg10 mi
11:15 PM72 °FClear.No wind44%29.98 "Hg10 mi
10:55 PM73 °FClear.No wind41%29.97 "Hg10 mi
10:35 PM73 °FClear.8 mph41%29.97 "Hg10 mi
10:15 PM73 °FClear.8 mph41%29.97 "Hg10 mi
9:55 PM75 °FClear.No wind39%29.97 "Hg10 mi
9:35 PM75 °FClear.No wind41%29.97 "Hg10 mi
9:15 PM75 °FClear.3 mph39%29.97 "Hg10 mi
8:55 PM79 °FClear.No wind32%29.96 "Hg10 mi
8:15 PM79 °FClear.No wind32%29.95 "Hg10 mi
7:55 PM79 °FSunny.18 mph30%29.94 "Hg10 mi
7:35 PM81 °FSunny.17 mph26%29.93 "Hg10 mi
7:15 PM82 °FSunny.15 mph19%29.92 "Hg10 mi
6:55 PM82 °FSunny.17 mph16%29.92 "Hg10 mi
6:35 PM84 °FSunny.16 mph14%29.91 "Hg10 mi
6:15 PM86 °FSunny.23 mph13%29.91 "Hg10 mi
5:55 PM88 °FSunny.20 mph12%29.90 "Hg10 mi
5:35 PM90 °FSunny.21 mph10%29.91 "Hg10 mi
5:15 PM88 °FSunny.24 mph9%29.90 "Hg10 mi
4:55 PM90 °FSunny.22 mph8%29.90 "Hg10 mi
4:35 PM91 °FSunny.28 mph8%29.91 "Hg10 mi
4:15 PM91 °FSunny.23 mph9%29.91 "Hg10 mi
3:55 PM91 °FSunny.23 mph9%29.91 "Hg10 mi
2:15 PM93 °FSunny.16 mph8%29.93 "Hg10 mi
1:55 PM91 °FSunny.16 mph9%29.94 "Hg10 mi
1:35 PM91 °FSunny.18 mph8%29.94 "Hg10 mi
1:15 PM91 °FSunny.16 mph9%29.95 "Hg10 mi
12:55 PM91 °FSunny.17 mph8%29.95 "Hg10 mi
12:35 PM91 °FSunny.16 mph8%29.95 "Hg10 mi
12:15 PM90 °FSunny.15 mph9%29.96 "Hg10 mi
11:55 AM88 °FSunny.No wind11%29.96 "Hg10 mi
11:35 AM86 °FSunny.No wind11%29.96 "Hg10 mi
11:15 AM84 °FSunny.No wind12%29.97 "Hg10 mi
10:55 AM82 °FSunny.No wind13%29.98 "Hg10 mi
10:35 AM82 °FSunny.No wind14%29.98 "Hg10 mi
10:15 AM81 °FSunny.No wind16%29.98 "Hg10 mi
Weather by CustomWeather, © 2015

See weather overviewHow to use our weather pages